www.pogodaiklimat.ru

Погода и климат >> Архив погоды >> Австрия >> Рец


ПОГОДА в Реце

  • Прогноз погоды в Реце
  • Монитор погоды в Реце

АРХИВ ПОГОДЫ в Реце

Время (UTC), дата Ветер
(напр.,м/с)
 
Видим.   Явления Облачность Т
(С)
Тd
(С)
f
(%)
Тe
(С)
Тes
(С)
Комфортность P
(гПа)
Po
(гПа)
Тmin
(С)
Tmax
(С)
R
(мм)
R24
(мм)
S
(см)
04 13.09 СЗ 6 н/о н/о +17.0 +12.4 74 +16 +16 1029.2 991.5
05 13.09 СЗ 6 18 км 8/8 800 м
[Cu Sc]
+17.1 +12.4 74 +16 +16 1029.6 991.9
06 13.09 СЗ 6 23 км 6/6 750 м
[Cu Sc]
+17.2 +12.5 74 +16 +17 1029.5 991.8 +16.2 +19.1
07 13.09 СЗ 5 н/о н/о +18.3 +13.1 72 +18 +18 1029.6 992.0
08 13.09 СЗ 3 н/о н/о +20.5 +14.3 68 +23 +23 комфорт 1029.5 992.2
09 13.09 З 5 н/о н/о +21.7 +14.1 62 +25 +25 комфорт 1029.0 991.9
10 13.09 З 5 н/о н/о +22.0 +13.7 59 +25 +25 комфорт 1028.7 991.6
11 13.09 СЗ 4 н/о н/о +23.2 +13.4 54 +26 +26 жарко 1028.5 991.6
12 13.09 СЗ 4 35 км 5/5 960 м
[Cu Sc]
+23.2 +13.2 53 +26 +30 жарко 1028.4 991.5
13 13.09 З 5 н/о н/о +23.3 +13.4 54 +27 +27 душно 1028.4 991.5
14 13.09 СЗ 5 н/о н/о +23.2 +13.1 53 +26 +26 жарко 1028.2 991.3
15 13.09 СЗ 2 н/о н/о +23.5 +13.9 55 +26 +26 жарко 1028.0 991.1
16 13.09 СЗ 3 н/о н/о +22.5 +13.7 57 +26 +26 жарко 1028.1 991.1
17 13.09 СЗ 3 н/о н/о +21.6 +13.8 61 +24 +24 комфорт 1028.4 991.3
18 13.09 СЗ 2 20 км 9/9 750 м
[Cu Sc]
+20.8 +14.0 65 +24 +24 комфорт 1029.0 991.8 +16.9 +24.6
19 13.09 СЗ 2 н/о н/о +20.2 +13.9 67 +23 +23 комфорт 1029.3 992.0
20 13.09 СЗ 5 н/о н/о +19.4 +13.7 70 +21 +21 комфорт 1029.4 992.0
21 13.09 СЗ 5 н/о н/о +18.6 +13.8 74 +19 +19 1029.5 992.0
22 13.09 СЗ 6 н/о н/о +18.6 +13.8 74 +19 +19 1029.5 992.0
23 13.09 СЗ 4 н/о н/о +18.5 +13.9 75 +19 +19 1029.7 992.2
00 14.09 СЗ 4 н/о н/о +18.2 +13.8 75 +18 +18 1029.8 992.2
01 14.09 В 2 н/о н/о +17.5 +14.0 80 +18 +18 1030.0 992.3
02 14.09 В 1 н/о н/о +17.1 +14.1 83 +18 +18 1030.2 992.5
03 14.09 СВ 4 н/о н/о +16.6 +14.1 85 +16 +16 1030.5 992.7
04 14.09 СВ 4 н/о н/о +16.1 +13.3 83 +15 +15 1031.1 993.2
05 14.09 СВ 2 17 км 5/5 750 м
[Cu hum]
+14.7 +12.9 89 +14 +14 1031.8 993.7
06 14.09 СВ 2 20 км 6/6 800 м
[Cu Sc]
+15.1 +11.9 81 +15 +15 1032.3 994.2 +14.5 +20.9
07 14.09 СВ 3 н/о н/о +15.4 +11.7 79 +15 +15 1032.8 994.7
08 14.09 В 3 н/о н/о +16.5 +12.1 75 +16 +16 1032.7 994.8
09 14.09 СВ 1 н/о н/о +18.4 +13.1 71 +20 +20 1032.3 994.6
10 14.09 ЮВ 2 н/о н/о +16.6 +11.5 72 +17 +17 1032.3 994.4
11 14.09 В 1 н/о н/о +18.6 +12.0 65 +20 +20 1031.6 994.0
12 14.09 штиль 0 35 км 9/9 960 м
[Cu Sc]
+18.3 +11.4 64 +19 +20 1031.4 993.7
13 14.09 ЮВ 1 н/о н/о +19.3 +12.0 63 +22 +22 комфорт 1030.5 993.0
14 14.09 В 1 н/о н/о +19.4 +11.3 59 +22 +22 комфорт 1030.1 992.6
15 14.09 СВ 2 н/о н/о +20.9 +11.3 54 +24 +24 комфорт 1029.0 991.8
16 14.09 СЗ 2 н/о н/о +20.2 +10.6 54 +22 +22 комфорт 1028.3 991.0
17 14.09 СЗ 2 н/о н/о +18.0 +10.3 61 +19 +19 1028.8 991.2
18 14.09 СЗ 3 18 км 1/1 800 м
[Cu hum]
+16.6 +9.4 62 +16 +16 1029.1 991.3 +15.0 +21.8
19 14.09 СВ 2 н/о н/о +15.3 +9.5 68 +15 +15 1029.6 991.6
20 14.09 С 3 н/о н/о +15.2 +8.8 66 +15 +15 1029.9 991.9
21 14.09 С 3 н/о н/о +14.7 +7.9 64 +14 +14 1030.1 992.0
22 14.09 С 3 н/о н/о +13.7 +7.7 67 +13 +13 1030.2 992.0
23 14.09 С 2 н/о н/о +13.0 +7.4 69 +12 +12 1029.7 991.4
00 15.09 С 3 н/о н/о +12.3 +6.9 70 +11 +11 1029.6 991.2
01 15.09 С 2 н/о н/о +11.8 +6.8 71 +11 +11 1029.0 990.5
02 15.09 СВ 2 н/о н/о +11.9 +6.5 69 +11 +11 1028.5 990.1
03 15.09 С 3 н/о н/о +11.5 +6.5 71 +10 +10 1028.2 989.7
04 15.09 С 2 н/о н/о +10.6 +6.4 75 +9 +9 1028.1 989.5
05 15.09 С 3 6000 м ясно +10.7 +6.5 75 +9 +9 1027.8 989.2
06 15.09 СВ 1 8000 м ясно +12.1 +7.0 71 +12 +13 1027.5 989.1 +9.7 +16.7
07 15.09 В 2 н/о н/о +12.5 +7.4 71 +12 +12 1027.4 989.1
08 15.09 СВ 2 н/о н/о +14.3 +8.0 66 +14 +14 1026.7 988.7
09 15.09 ЮВ 1 н/о н/о +16.4 +8.7 60 +17 +17 1026.2 988.5
10 15.09 ЮЗ 1 н/о н/о +17.4 +10.1 62 +18 +18 1025.5 987.9
11 15.09 Ю 1 н/о н/о +19.9 +11.6 59 +23 +23 комфорт 1024.2 987.0
12 15.09 Ю 1 30 км ясно +21.0 +11.5 55 +24 +35 комфорт 1023.3 986.3
13 15.09 Ю 1 н/о н/о +22.4 +12.1 52 +25 +25 комфорт 1022.4 985.6
14 15.09 Ю 3 н/о н/о +22.9 +12.5 52 +26 +26 жарко 1021.4 984.7
15 15.09 Ю 4 н/о н/о +23.0 +12.6 52 +26 +26 жарко 1020.4 983.7
16 15.09 Ю 4 н/о н/о +22.8 +13.1 54 +26 +26 жарко 1019.9 983.2
17 15.09 Ю 2 н/о н/о +21.5 +13.6 61 +24 +24 комфорт 1019.5 982.7 0.0
18 15.09 ЮЗ 1 н/о н/о +20.2 +13.1 64 +23 +23 комфорт 1019.7 982.7 +11.5 +23.6 0.0
19 15.09 З 1 н/о н/о +19.7 +13.2 66 +22 +22 комфорт 1019.7 982.7
20 15.09 ЮЗ 1 н/о н/о +19.4 +13.2 67 +22 +22 комфорт 1019.7 982.6
21 15.09 З 3 н/о н/о +18.7 +13.3 71 +20 +20 1019.7 982.5
22 15.09 З 3 н/о н/о +17.4 +13.1 76 +17 +17 1019.9 982.6
23 15.09 З 2 н/о н/о +15.6 +12.6 82 +15 +15 1020.0 982.4
00 16.09 З 4 н/о н/о +16.1 +12.4 79 +15 +15 1019.5 982.0
01 16.09 З 4 н/о н/о +16.1 +12.3 78 +15 +15 1019.0 981.5
02 16.09 З 3 н/о н/о +14.8 +12.0 83 +14 +14 1018.9 981.3
03 16.09 З 5 н/о н/о +16.8 +12.8 77 +16 +16 1018.6 981.2
04 16.09 СЗ 6 н/о н/о +16.8 +12.8 77 +16 +16 1018.1 980.8
05 16.09 З 3 20 км 1/0
[Ci fib]
+14.8 +12.4 86 +14 +14 1018.5 980.9
06 16.09 СЗ 4 20 км 1/0
[Ci fib]
+16.8 +12.9 78 +16 +17 1018.8 981.4 +14.1 +20.3
07 16.09 СЗ 3 н/о н/о +18.3 +13.0 71 +19 +19 1018.8 981.6
08 16.09 СЗ 3 н/о н/о +20.0 +12.3 61 +22 +22 комфорт 1018.9 981.9
09 16.09 З 3 н/о н/о +21.5 +11.7 54 +24 +24 комфорт 1018.6 981.8
10 16.09 З 4 н/о н/о +22.6 +10.3 46 +24 +24 комфорт 1017.9 981.3
11 16.09 З 5 н/о н/о +24.1 +10.3 42 +25 +25 комфорт 1016.9 980.5
12 16.09 З 5 35 км 1/1 1000 м
[Cu hum]
+25.0 +10.8 41 +26 +31 жарко 1016.2 979.9
13 16.09 З 3 н/о н/о +25.1 +11.3 42 +26 +26 жарко 1015.4 979.2
14 16.09 З 4 н/о н/о +24.6 +10.9 42 +26 +26 жарко 1015.0 978.7
15 16.09 З 3 н/о н/о +23.9 +11.8 47 +26 +26 жарко 1014.9 978.5
16 16.09 СЗ 2 н/о н/о +23.2 +12.7 52 +26 +26 жарко 1014.5 978.1
17 16.09 З 3 н/о н/о +22.2 +12.3 53 +25 +25 комфорт 1014.4 977.9
18 16.09 СЗ 4 18 км 9/9 600 м
[Cu Sc]
+21.7 +11.7 53 +24 +24 комфорт 1014.5 977.9 +16.5 +25.8
19 16.09 СЗ 4 н/о н/о +20.9 +12.0 57 +23 +23 комфорт 1014.8 978.1
20 16.09 З 4 н/о н/о +20.8 +11.7 56 +23 +23 комфорт 1015.5 978.7
21 16.09 СЗ 4 н/о н/о +20.4 +10.6 53 +22 +22 комфорт 1015.0 978.2
22 16.09 З 3 н/о н/о +19.4 +10.7 57 +21 +21 комфорт 1015.0 978.1
23 16.09 З 4 н/о н/о +19.0 +10.7 59 +20 +20 1015.0 978.0
00 17.09 З 3 н/о н/о +18.3 +11.1 63 +19 +19 1014.6 977.6
01 17.09 З 3 н/о н/о +18.0 +11.5 66 +18 +18 1015.0 977.9 0.0
02 17.09 СЗ 2 н/о н/о +17.3 +11.9 71 +18 +18 1014.8 977.6 0.0
03 17.09 З 3 н/о н/о +17.0 +12.3 74 +17 +17 1014.6 977.4 0.0
04 17.09 СЗ 4 н/о н/о +16.3 +12.5 78 +16 +16 1014.6 977.3 0.0
05 17.09 З 4 18 км 10/9 700 м
[Cu hum]
+15.6 +13.0 85 +15 +15 1015.2 977.8
06 17.09 СЗ 4 20 км {ливн. осадки} 10/9 600 м
[Cu Sc]
+15.5 +13.1 86 +15 +15 1015.8 978.4 +15.5 +21.9 0.0
07 17.09 СЗ 4 н/о н/о +14.0 +12.3 89 +12 +12 1016.2 978.6 0.0
08 17.09 С 3 н/о н/о +14.0 +11.1 83 +13 +13 1016.7 979.0
09 17.09 СЗ 3 н/о н/о +14.1 +10.3 78 +13 +13 1016.7 979.0 0.0
10 17.09 З 4 н/о н/о +14.9 +10.3 74 +14 +14 1016.3 978.8
11 17.09 СЗ 3 н/о н/о +15.9 +10.9 72 +15 +15 1015.8 978.4
12 17.09 З 4 35 км {ливн. осадки} 9/9 750 м
[Cu Sc]
+16.9 +11.6 71 +16 +17 1014.9 977.7 0.0
13 17.09 З 6 н/о н/о +17.4 +11.7 69 +17 +17 1014.2 977.1
14 17.09 З 8 н/о н/о +18.3 +11.8 66 +18 +18 1013.7 976.7
15 17.09 З 7 н/о н/о +18.0 +11.7 67 +17 +17 1013.2 976.2
16 17.09 З 7 н/о н/о +17.9 +11.1 64 +17 +17 1013.2 976.2
17 17.09 З 4 н/о н/о +16.9 +10.8 67 +16 +16 1013.2 976.0
18 17.09 З 3 18 км 1/1 800 м
[Cu hum]
+14.9 +10.7 76 +14 +14 1014.1 976.6 +13.8 +18.8 0.0
19 17.09 З 3 н/о н/о +14.7 +9.9 73 +14 +14 1014.8 977.3
20 17.09 З 3 н/о н/о +14.8 +8.4 65 +14 +14 1015.7 978.1
21 17.09 З 3 н/о н/о +14.0 +8.1 68 +13 +13 1016.1 978.4
22 17.09 З 3 н/о н/о +14.1 +6.7 61 +13 +13 1016.7 979.0
23 17.09 СЗ 5 н/о н/о +13.2 +6.6 64 +11 +11 1017.7 979.8
00 18.09 З 3 н/о н/о +11.9 +6.6 70 +10 +10 1018.2 980.2
01 18.09 СЗ 5 н/о н/о +11.0 +4.0 62 +8 +8 1018.7 980.5
02 18.09 З 7 н/о н/о +10.4 +2.4 58 +7 +7 1019.5 981.2
03 18.09 З 5 н/о н/о +9.6 +3.3 65 +7 +7 1020.5 982.0
04 18.09 СЗ 4 н/о н/о +9.1 +2.8 65 +6 +6 1021.2 982.6
05 18.09 СЗ 4 17 км 1/1 600 м
[Cu hum]
+8.4 +3.3 70 +5 +5 1022.0 983.3
06 18.09 СЗ 6 14 км 1/0
[Ci fib]
+9.6 +3.3 65 +6 +7 1022.2 983.7 +8.4 +15.2
07 18.09 З 9
{14}
н/о н/о +10.3 +3.3 62 +6 +6 1022.5 984.1
08 18.09 СЗ 6
{14}
н/о н/о +11.5 +2.4 54 +9 +9 1023.4 985.1
09 18.09 СЗ 7
{14}
н/о н/о +12.7 +2.8 51 +10 +10 1023.4 985.2
10 18.09 СЗ 5 н/о н/о +13.7 +1.0 42 +12 +12 1023.3 985.3
11 18.09 З 4 н/о н/о +14.7 +1.7 41 +14 +14 1023.1 985.2
12 18.09 СЗ 5
{14}
30 км ясно +15.9 +1.5 38 +15 +20 1022.4 984.7
13 18.09 СЗ 4 н/о н/о +16.1 +0.9 36 +16 +16 1022.2 984.5
14 18.09 СЗ 4 н/о н/о +16.4 +1.4 36 +16 +16 1021.9 984.3
15 18.09 СЗ 3 н/о н/о +16.6 +2.7 39 +16 +16 1021.7 984.1
16 18.09 СЗ 4 н/о н/о +15.3 +1.8 40 +14 +14 1021.8 984.0
17 18.09 СЗ 2 н/о н/о +13.3 +2.0 46 +13 +13 1022.2 984.2
18 18.09 СЗ 3
{14}
18 км ясно +11.8 +2.3 52 +10 +10 1022.9 984.6 +9.4 +16.8
19 18.09 СЗ 3 н/о н/о +11.7 +1.8 51 +10 +10 1023.5 985.2
20 18.09 СЗ 2 н/о н/о +10.9 +2.4 56 +10 +10 1023.9 985.5
21 18.09 СЗ 3 н/о н/о +10.4 +2.6 58 +9 +9 1024.1 985.6
22 18.09 СЗ 3 н/о н/о +10.1 +3.1 62 +8 +8 1024.2 985.7
23 18.09 СЗ 4 н/о н/о +9.3 +3.0 65 +7 +7 1024.5 985.8
00 19.09 СЗ 5 н/о н/о +8.9 +3.0 66 +6 +6 1024.5 985.8
01 19.09 СЗ 5 н/о н/о +8.8 +2.9 66 +6 +6 1024.5 985.8
02 19.09 СЗ 5 н/о н/о +8.4 +2.8 68 +5 +5 1024.6 985.8
03 19.09 СЗ 6 н/о н/о +8.2 +3.0 70 +4 +4 1024.7 985.9
04 19.09 СЗ 5 н/о н/о +7.5 +3.1 74 +4 +4 1025.1 986.2
05 19.09 СЗ 6 13 км 3/3 750 м
[Cu hum]
+7.0 +3.2 77 +3 +3 1025.5 986.5
06 19.09 СЗ 7 14 км ясно +7.2 +3.5 77 +3 +3 1025.9 986.9 +6.9 +11.9
07 19.09 СЗ 5 н/о н/о +9.5 +4.2 69 +6 +6 1026.4 987.7
08 19.09 СЗ 4 н/о н/о +11.2 +4.4 63 +9 +9 1026.7 988.2
09 19.09 СЗ 4 н/о н/о +12.4 +2.7 52 +11 +11 1026.8 988.5
10 19.09 СЗ 5 н/о н/о +13.6 +2.3 46 +12 +12 1026.4 988.2
11 19.09 З 5 н/о н/о +14.2 +1.2 41 +13 +13 1026.2 988.1
12 19.09 С 4 35 км 5/5 960 м
[Cu Sc]
+14.3 +2.1 44 +13 +16 1026.2 988.1
13 19.09 С 4 н/о н/о +13.7 +1.3 43 +12 +12 1026.1 988.0
14 19.09 С 4 н/о н/о +14.0 +2.3 45 +13 +13 1026.0 987.9
15 19.09 СЗ 4 н/о н/о +14.0 +1.6 43 +13 +13 1026.0 987.9
16 19.09 СЗ 3 н/о н/о +13.1 +1.1 44 +12 +12 1026.4 988.2
17 19.09 СЗ 2 н/о н/о +11.5 +1.0 48 +11 +11 1027.0 988.5
18 19.09 СЗ 2 18 км 1/0
[Ci fib]
+10.3 +1.2 53 +9 +9 1027.8 989.1 +7.0 +15.7
19 19.09 СЗ 3 н/о н/о +10.2 +1.8 56 +8 +8 1028.0 989.3
20 19.09 СЗ 4 н/о н/о +9.9 +2.1 58 +8 +8 1028.3 989.6
21 19.09 СЗ 4 н/о н/о +9.4 +2.3 61 +7 +7 1028.8 990.0
22 19.09 СЗ 3 н/о н/о +8.8 +2.5 65 +7 +7 1029.0 990.1
23 19.09 СЗ 3 н/о н/о +7.8 +2.5 69 +5 +5 1029.0 990.0
00 20.09 СЗ 4 н/о н/о +7.4 +2.6 72 +4 +4 1029.0 989.9
01 20.09 СЗ 3 н/о н/о +7.6 +2.7 71 +5 +5 1029.0 989.9
02 20.09 СЗ 4 н/о н/о +7.1 +2.6 73 +4 +4 1028.7 989.6
03 20.09 СЗ 4 н/о н/о +6.8 +2.5 74 +3 +3 1028.7 989.5
04 20.09 СЗ 4 н/о н/о +6.9 +2.4 73 +3 +3 1028.7 989.6

 

Местоположение метеостанции Рец (Австрия): широта 48.77 долгота 15.95 высота над уровнем моря 323 м.

В архиве по умолчанию представлена погода в Реце за последнюю неделю. Архивные данные за месяц целиком и за предыдущие месяцы, начиная с января 2011 года, Вы можете получить, выбрав интересующий диапазон дат из раскрывающегося списка и нажав кнопку "Ввод!".


*Определитесь, кто Вы:
робот инопланетянин человек

Внимание! Время в таблицах - всемирное. Для получения местного времени необходимо прибавить поправку, которая равна 1 ч.

Смотрите также архив погоды в соседних городах и на ближайших метеорологических станциях:

Погода в Кучарловице (Чехия) (16 км)
Погода в Гарс-ам-Кампе (Австрия) (29 км)
Погода в Лейзер Берге (Австрия) (38 км)
Погода в Лангенлойсе (Австрия) (38 км)
Погода на АЭС Дукованы (Чехия) (39 км)
Погода в Аллентштайге (Австрия) (44 км)
Погода в Кремс-ан-дер-Донау (Австрия) (46 км)
Погода в Замке Namest nad Oslav (Чехия) (46 км)
Погода в Штоккерау (Австрия) (47 км)
Погода в Пойсдорфе (Австрия) (51 км)

Пояснения к столбцам:

Ветер - указаны скорость ветра в м/с - средняя за 10 мин, порывы в срок и между сроками (в фигурных скобках) и направление, откуда дует ветер: С - северный, СВ - северо-восточный, В - восточный, ЮВ - юго-восточный, Ю - южный, ЮЗ - юго-западный, З - западный, СЗ - северо-западный.
Видимость - горизонтальная дальность видимости в метрах или километрах. При видимости от 1 до 10 км при отсутствии осадков обычно наблюдается дымка, при ухудшении видимости до 1 км и менее - туман. В сухую погоду видимость может ухудшаться дымом, пылью или мглою.
Явления - указаны атмосферные явления, наблюдавшиеся в срок или в последний час перед сроком; фигурными скобками обозначены явления, наблюдавшиеся между сроками (за 1-3 часа до срока); квадратными скобками обозначены град или гололедные отложения с указанием их диаметра в мм.
Облачность - указаны через наклонную черту общая и нижняя облачность в баллах и высота нижней границы облаков в метрах; квадратными скобками обозначены формы облаков: Ci - перистые, Cs - перисто-слоистые, Cc - перисто-кучевые, Ac - высококучевые, As - высокослоистые, Sc - слоисто-кучевые, Ns - слоисто-дождевые, Cu - кучевые, Cb - кучево-дождевые. Подробнее классификацию облаков см. в Атласе облаков (PDF).
T - Температура воздуха - температура, измеренная на высоте 2 м над землей.
Td - Температура точки росы - температура, при понижении до которой содержащийся в воздухе водяной пар достигнет насыщения.
f - Относительная влажность воздуха - влажноcть воздуха, измеренная на высоте 2 м над землей.
Te - Эффективная температура - температура, которую ощущает одетый по сезону человек в тени. Характеристика душности погоды. При расчете учитывается влияние влажности воздуха и скорости ветра на теплоощущения человека.
Tes - Эффективная температура на солнце - температура, которую ощущает человек, с поправкой на солнечный нагрев. Характеристика знойности погоды. Зависит от высоты солнца над горизонтом, облачности и скорости ветра. Ночью, в пасмурную погоду, а также при ветре 12 м/с и более поправка равна нулю.
P - Атмосферное давление - приведенное к уровню моря атмосферное давление.
Po - Атмосферное давление - измеренное на уровне метеостанции атмосферное давление.
Tmin - Минимальная температура - минимум температуры воздуха на высоте 2 м над землей.
Tmax - Максимальная температура - максимум температуры воздуха на высоте 2 м над землей.
R - Количество осадков - Количество выпавших осадков за период времени, мм. При наведении курсора мыши на число - период времени, за который выпало указанное количество осадков.
R24 - Количество осадков - Количество выпавших осадков за 24 часа, мм.
S - Снежный покров - Высота снежного покрова, см. При наведении курсора мыши на число - состояние снежного покрова и степень покрытия местности в баллах.